Tracking 18840 objects as of 17-November-2017
HD Live streaming from Space Station
objects crossing your sky now

SL-8 R/B

Track SL-8 R/B now!
10-day predictions


NORAD ID: 36520
Int'l Code: 2010-017B
Perigee: 970.6 km
Apogee: 1,023.4 km
Inclination: 83.0 °
Period: 104.9 minutes
Semi major axis: 7367 km
RCS: 5.803 m2 (large)
Launch date: April 27, 2010
Source: Commonwealth of Independent States (former USSR) (CIS)
Launch site: PLESETSK MISSILE AND SPACE COMPLEX (PKMTR)

Note: This is a ROCKET BODY
aabbcc
Your satellite tracking list
Your tracking list is empty




NASA's NSSDC Master Catalog

Two Line Element Set (TLE):
1 36520U 10017B   17320.72396660 +.00000128 +00000-0 +12201-3 0  9997
2 36520 082.9629 027.5734 0035830 158.3521 315.5502 13.72715757378572
Source of the keplerian elements: AFSPC